User: anonymous   Login
Location: ??????
(42.0089°N, 44.3281°E)
Time: 14:56:16
(UTC+00:00)
Language:

BREEZE-M DEB (TANK) - Orbit

View from above orbital plane
View from above orbital plane
View from above satellite
View from above satellite

Ground track
Ground track

The orbit data is extracted from the following two-line orbital elements,

1 39362U 13058C   22023.59707432  .00002074  00000-0  69106-3 0  9994
2 39362  49.5279 128.3112 5177011 190.0150 153.4639  5.27356224157962
Epoch (UTC): 23 January 2022 14:19:47
Eccentricity: 0.5177011
inclination: 49.5279°
perigee height: 346 km
apogee height: 14782 km
right ascension of ascending node: 128.3112°
argument of perigee: 190.0150°
revolutions per day: 5.27356224
mean anomaly at epoch: 153.4639°
orbit number at epoch: 15796

The dashed part of the orbit path shows where the satellite is in the earth's shadow,  

DLR